Saint Cloud, MN

5:12 AM CST on February 24, 2017 (GMT -0600)
Saint Cloud Regional

Weather History for KSTC - April, 2013

Change the Weather History Date:

Monday, April 15, 2013

  Actual Average Record
Temperature  
Mean Temperature 34 °F 44 °F  
Max Temperature 36 °F 56 °F 84 °F (2002)
Min Temperature 31 °F 33 °F 16 °F (2014)
Degree Days  
Heating Degree Days 31 21  
Month to date heating degree days 497 364  
Since 1 July heating degree days 8095 7914  
Cooling Degree Days 0 0  
Month to date cooling degree days 0 0  
Year to date cooling degree days 0 0  
Moisture  
Dew Point 28 °F    
Average Humidity 83    
Maximum Humidity 96    
Minimum Humidity 70    
Precipitation  
Precipitation T in 0.08 in 1.51 in (2012)
Month to date precipitation 1.43 1.14  
Year to date precipitation 5.84 3.93  
Snow  
Snow T in 0.10 in 3.30 in (1991)
Month to date snowfall 10.9 2.0  
Since 1 July snowfall 65.0 44.7  
Snow Depth 5.00 in    
Sea Level Pressure  
Sea Level Pressure 29.70 in    
Wind  
Wind Speed 17 mph (SW)    
Max Wind Speed 28 mph    
Max Gust Speed 37 mph    
Visibility 9 miles    
Events      
T = Trace of Precipitation, MM = Missing Value Source: NWS Daily Summary

Daily Weather History Graph

Daily Weather History Graph

Search for Another Location

Airport or City:

Trip Planner

Search our weather history database for the weather conditions in past years. The results will help you decide how hot, cold, wet, or windy it might be!

Date:

Astronomy

Apr. 15, 2013 Rise Set
Actual Time 6:30 AM CDT 8:02 PM CDT
Civil Twilight 5:59 AM CDT 8:34 PM CDT
Nautical Twilight 5:21 AM CDT 9:11 PM CDT
Astronomical Twilight 4:41 AM CDT 9:52 PM CDT
Moon 9:48 AM CDT (4/15) 12:24 AM CDT (4/15)
Length of Visible Light 14h 34m
Length of Day
13h 32m
Waxing Crescent, 25% of the Moon is Illuminated
Apr 15
Waxing Crescent
Apr 18
First Quarter
Apr 25
Full
May 2
Last Quarter
May 9
New

Hourly Weather History & Observations

Time (CDT) Temp. Windchill Dew Point Humidity Pressure Visibility Wind Dir Wind Speed Gust Speed Precip Events Conditions
12:22 AM 33.8 °F 25.8 °F 32.0 °F 93% 29.45 in 3.0 mi SE 10.4 mph - N/A   Overcast
12:40 AM 33.8 °F 25.8 °F 32.0 °F 93% 29.44 in 4.0 mi SSE 10.4 mph - N/A   Overcast
12:53 AM 33.1 °F 24.9 °F 32.0 °F 96% 29.50 in 6.0 mi SSE 10.4 mph - N/A   Overcast
1:53 AM 34.0 °F 23.4 °F 30.9 °F 89% 29.50 in 10.0 mi South 17.3 mph 23.0 mph N/A   Overcast
2:53 AM 34.0 °F 25.5 °F 28.0 °F 79% 29.49 in 10.0 mi South 11.5 mph 26.5 mph N/A   Overcast
3:53 AM 32.0 °F 20.8 °F 27.0 °F 82% 29.51 in 10.0 mi South 17.3 mph 27.6 mph N/A   Overcast
4:53 AM 32.0 °F 20.8 °F 26.1 °F 79% 29.51 in 10.0 mi South 17.3 mph - N/A   Overcast
5:53 AM 30.9 °F 19.1 °F 26.1 °F 82% 29.51 in 10.0 mi South 18.4 mph 26.5 mph N/A   Overcast
6:53 AM 30.9 °F 19.4 °F 26.1 °F 82% 29.52 in 10.0 mi SSW 17.3 mph - N/A   Overcast
7:53 AM 32.0 °F 20.1 °F 27.0 °F 82% 29.55 in 10.0 mi South 19.6 mph 27.6 mph N/A   Overcast
8:53 AM 32.0 °F 20.5 °F 28.0 °F 85% 29.56 in 10.0 mi SSW 18.4 mph 24.2 mph N/A   Overcast
9:53 AM 33.1 °F 21.9 °F 28.0 °F 82% 29.57 in 10.0 mi SW 18.4 mph 25.3 mph N/A   Overcast
10:53 AM 34.0 °F 22.7 °F 27.0 °F 75% 29.62 in 10.0 mi WSW 19.6 mph - N/A   Overcast
11:53 AM 35.1 °F 24.1 °F 27.0 °F 72% 29.67 in 10.0 mi WSW 19.6 mph - N/A   Overcast
12:53 PM 35.1 °F 24.5 °F 28.0 °F 76% 29.68 in 10.0 mi WSW 18.4 mph 27.6 mph N/A   Overcast
1:53 PM 36.0 °F 23.5 °F 27.0 °F 70% 29.73 in 10.0 mi WSW 27.6 mph 33.4 mph N/A   Overcast
2:53 PM 36.0 °F 25.3 °F 28.0 °F 73% 29.76 in 10.0 mi WSW 19.6 mph 29.9 mph N/A   Overcast
3:53 PM 36.0 °F 24.7 °F 28.0 °F 73% 29.79 in 10.0 mi West 21.9 mph 27.6 mph N/A   Overcast
4:53 PM 35.1 °F 25.5 °F 28.0 °F 76% 29.82 in 10.0 mi WSW 15.0 mph - N/A   Overcast
5:51 PM 35.6 °F 25.9 °F 28.4 °F 75% 29.78 in 10.0 mi West 16.1 mph - N/A   Overcast
5:53 PM 35.1 °F 25.2 °F 28.0 °F 76% 29.84 in 10.0 mi West 16.1 mph - N/A   Overcast
6:39 PM 35.6 °F 25.5 °F 28.4 °F 75% 29.82 in 10.0 mi West 17.3 mph - N/A   Overcast
6:53 PM 35.1 °F 25.5 °F 28.0 °F 76% 29.88 in 10.0 mi West 15.0 mph - N/A   Overcast
7:48 PM 35.6 °F 26.6 °F 28.4 °F 75% 29.84 in 10.0 mi West 13.8 mph - N/A   Overcast
7:53 PM 35.1 °F 25.2 °F 28.0 °F 76% 29.91 in 10.0 mi West 16.1 mph - N/A   Overcast
8:48 PM 35.6 °F 26.2 °F 28.4 °F 75% 29.85 in 10.0 mi West 15.0 mph - N/A   Overcast
8:53 PM 35.1 °F 26.4 °F 28.0 °F 76% 29.92 in 10.0 mi West 12.7 mph - N/A   Overcast
9:53 PM 34.0 °F 24.6 °F 28.0 °F 79% 29.95 in 10.0 mi West 13.8 mph - N/A   Overcast
10:53 PM 34.0 °F 23.8 °F 28.0 °F 79% 29.99 in 10.0 mi West 16.1 mph 23.0 mph N/A   Overcast
11:53 PM 34.0 °F 24.2 °F 28.0 °F 79% 30.01 in 10.0 mi West 15.0 mph - N/A   Overcast